This demonstration page uses our WeatherBlox Daily Observations layout. Learn more.

Left ArrowRight Arrow

39.51506, -84.39828

Hourly Observations for March 30, 2015

Temp ( °F °C ) Dew Point ( °F °C ) Humidity (%) Winds ( mph kmh ) Pressure ( in mb ) Visibility ( mi km ) Precip ( " mm )
12:15 am 00:15 Mostly Cloudy 42 5.7 35 1.6 75 75 SW 3 6 29.97 1015 10 16 N/A
12:35 am 00:35 Cloudy 43 6 36 2 76 76 SW 5 7 29.97 1015 10 16 N/A
12:55 am 00:55 Cloudy 44 6.8 37 2.6 75 75 SW 8 13 29.97 1015 10 16 N/A
1:15 am 01:15 Cloudy 44 6.8 37 3 77 77 SW 7 11 29.97 1015 7 11 N/A
1:35 am 01:35 Cloudy 47 8.2 40 4.6 78 78 SW 7 11 29.97 1015 10 16 N/A
1:55 am 01:55 Cloudy 47 8.2 40 4.5 78 78 SW 8 13 29.94 1014 10 16 N/A
2:15 am 02:15 Cloudy 47 8.2 41 5 80 80 SW 6 9 29.97 1015 10 16 N/A
2:35 am 02:35 Cloudy 49 9.6 43 5.9 78 78 W 10 17 29.97 1015 10 16 N/A
2:55 am 02:55 Mostly Cloudy 49 9.6 40 4.7 72 72 W 14 22 29.97 1015 10 16 N/A
3:15 am 03:15 Partly Cloudy 49 9.6 41 4.8 72 72 WNW 12 19 29.97 1015 10 16 N/A
3:35 am 03:35 Clear 49 9.6 40 4.2 69 69 WNW 14 22 29.97 1015 10 16 N/A
3:55 am 03:55 Clear 49 9.6 40 4.5 71 71 WNW 9 15 29.97 1015 10 16 N/A
4:15 am 04:15 Clear 47 8.2 37 2.5 68 68 NW 13 20 29.97 1015 10 16 N/A
4:35 am 04:35 Clear 45 7.1 33 0.7 64 64 NW 8 13 29.97 1015 10 16 N/A
4:55 am 04:55 Clear 43 6.1 32 0.1 66 66 W 3 6 29.97 1015 10 16 N/A
5:15 am 05:15 Clear 42 5.8 32 undefined 67 67 W 3 6 30.00 1016 10 16 N/A
5:35 am 05:35 Clear 39 4 33 0.6 79 79 W 5 7 30.00 1016 10 16 N/A
5:55 am 05:55 Clear 36 2.1 31 -0.3 84 84 W 3 6 30.03 1017 10 16 N/A
6:15 am 06:15 Clear 34 1.2 30 -0.9 86 86 W 3 6 30.03 1017 10 16 N/A
6:35 am 06:35 Clear 34 1.2 31 -0.7 87 87 WSW 3 6 30.03 1017 10 16 N/A
6:55 am 06:55 Clear 34 1.2 31 -0.5 89 89 N N/A 30.06 1018 10 16 N/A
7:15 am 07:15 Clear 34 1.2 31 -0.5 89 89 W 3 6 30.06 1018 10 16 N/A
7:35 am 07:35 Sunny 34 1.2 31 -0.5 89 89 WSW 3 6 30.09 1019 10 16 N/A
7:55 am 07:55 Sunny 34 1 31 -0.6 89 89 WSW 3 6 30.09 1019 10 16 N/A
8:15 am 08:15 Sunny 35 1.7 32 -0.1 88 88 N N/A 30.09 1019 10 16 N/A
8:35 am 08:35 Sunny 39 4.1 35 1.5 83 83 W 6 9 30.09 1019 10 16 N/A
8:55 am 08:55 Sunny 43 6.3 34 1.2 70 70 N N/A 30.09 1019 10 16 N/A
9:15 am 09:15 Sunny N/A N/A N/A W 9 15 N/A 10 16 N/A
9:35 am 09:35 Sunny 49 9.6 37 2.6 62 62 W 10 17 30.09 1019 10 16 N/A
9:55 am 09:55 Sunny 49 9.6 36 2 59 59 W 12 19 30.09 1019 10 16 N/A
10:15 am 10:15 Sunny 49 9.6 35 1.6 58 58 W 10 17 30.09 1019 10 16 N/A
10:35 am 10:35 Sunny N/A N/A N/A W 7 11 N/A 10 16 N/A
10:55 am 10:55 Sunny 51 10.3 34 1.2 54 54 WSW 8 13 30.12 1020 10 16 N/A
11:15 am 11:15 Sunny 52 11 34 1.2 51 51 WSW 9 15 30.12 1020 10 16 N/A
11:35 am 11:35 Sunny 55 12.5 35 1.6 48 48 W 12 19 30.12 1020 10 16 N/A
11:55 am 11:55 Sunny 55 12.5 32 -0.1 42 42 WNW 10 17 30.12 1020 10 16 N/A
12:15 pm 12:15 Partly Cloudy 55 12.5 29 -1.6 38 38 NW 14 22 30.12 1020 10 16 N/A
12:35 pm 12:35 Partly Cloudy 55 12.5 30 -1.1 39 39 WNW 10 17 30.12 1020 10 16 N/A
12:55 pm 12:55 Partly Cloudy 57 13.8 28 -2 34 34 WNW 15 24 30.12 1020 10 16 N/A
1:15 pm 13:15 Partly Cloudy 57 13.8 28 -2.3 33 33 WNW 13 20 30.12 1020 10 16 N/A
1:35 pm 13:35 Partly Cloudy 57 13.8 24 -4.5 28 28 WNW 8 13 30.12 1020 10 16 N/A
1:55 pm 13:55 Partly Cloudy 57 13.8 26 -3.4 30 30 W 17 28 30.12 1020 10 16 N/A
2:15 pm 14:15 Partly Cloudy 57 13.8 26 -3.6 30 30 W 15 24 30.12 1020 10 16 N/A
2:35 pm 14:35 Partly Cloudy 60 15.3 24 -4.3 26 26 NW 14 22 30.09 1019 10 16 N/A
2:55 pm 14:55 Sunny 60 15.3 24 -4.4 26 26 WNW 21 33 30.09 1019 10 16 N/A
3:15 pm 15:15 Partly Cloudy 60 15.3 21 -5.9 23 23 W 8 13 30.09 1019 10 16 N/A
3:35 pm 15:35 Sunny 60 15.3 19 -7.2 21 21 WNW 14 22 30.06 1018 10 16 N/A
3:55 pm 15:55 Partly Cloudy 60 15.4 19 -7 21 21 WNW 16 26 30.06 1018 10 16 N/A
4:15 pm 16:15 Partly Cloudy 60 15.4 20 -6.6 22 22 W 13 20 30.06 1018 10 16 N/A
4:35 pm 16:35 Mostly Cloudy 60 15.7 18 -7.6 20 20 NW 17 28 30.03 1017 10 16 N/A
4:55 pm 16:55 Partly Cloudy 60 15.5 19 -7.1 21 21 WNW 13 20 30.03 1017 10 16 N/A
5:15 pm 17:15 Mostly Cloudy 60 15.3 22 -5.7 23 23 WNW 12 19 30.06 1018 10 16 N/A
5:35 pm 17:35 Mostly Cloudy 60 15.3 23 -5.2 24 24 WNW 16 26 30.06 1018 10 16 N/A
5:55 pm 17:55 Partly Cloudy 60 15.3 23 -5 24 24 WNW 13 20 30.06 1018 10 16 N/A
6:15 pm 18:15 Partly Cloudy 60 15.3 24 -4.5 25 25 W 15 24 30.06 1018 10 16 N/A
6:35 pm 18:35 Partly Cloudy 60 15.3 25 -3.9 27 27 NW 9 15 30.06 1018 10 16 N/A
6:55 pm 18:55 Partly Cloudy 58 14.2 24 -4.6 27 27 WNW 10 17 30.06 1018 10 16 N/A
7:15 pm 19:15 Partly Cloudy 57 13.9 26 -3.4 30 30 WNW 5 7 30.06 1018 10 16 N/A
7:35 pm 19:35 Partly Cloudy 57 13.8 26 -3.5 30 30 W 8 13 30.06 1018 10 16 N/A
7:55 pm 19:55 Partly Cloudy 57 13.8 28 -2.5 33 33 W 5 7 30.06 1018 10 16 N/A
8:15 pm 20:15 Partly Cloudy 55 12.5 27 -2.8 35 35 W 3 6 30.06 1018 10 16 N/A
8:35 pm 20:35 Mostly Cloudy 55 12.5 26 -3.1 34 34 SW 5 7 30.03 1017 10 16 N/A
8:55 pm 20:55 Mostly Cloudy 55 12.5 29 -1.8 37 37 SW 6 9 30.03 1017 10 16 N/A
9:15 pm 21:15 Cloudy 50 10.1 32 0.1 50 50 WSW 5 7 30.06 1018 10 16 N/A
9:35 pm 21:35 Mostly Cloudy 49 9.6 33 0.6 54 54 N N/A 30.06 1018 10 16 N/A
9:55 pm 21:55 Partly Cloudy 49 9.6 33 0.6 54 54 WSW 3 6 30.06 1018 10 16 N/A
10:15 pm 22:15 Partly Cloudy 49 9.6 37 2.7 62 62 N N/A 30.06 1018 10 16 N/A
10:35 pm 22:35 Partly Cloudy 49 9.6 35 1.5 57 57 SW 5 7 30.06 1018 10 16 N/A
10:55 pm 22:55 Mostly Cloudy 47 8.5 35 1.4 61 61 SSW 5 7 30.03 1017 10 16 N/A
11:15 pm 23:15 Mostly Cloudy 49 9.6 37 2.9 63 63 SW 5 7 30.03 1017 10 16 N/A
11:35 pm 23:35 Mostly Cloudy 49 9.6 38 3.3 65 65 SW 3 6 30.03 1017 10 16 N/A
11:55 pm 23:55 Partly Cloudy 49 9.6 34 1.2 56 56 SW 3 6 30.03 1017 10 16 N/A

Powered by AerisWeather